STARLINK-1405, 45702

Orbit data source: Space-Track

STARLINK-1405, 45702 is a payload satellite owned by SpaceX/Seattle (US) in LEO that was launched on Thu, 04 Jun 2020 UTC via an FALCON 9 launch vehicle from the Air Force Eastern Test Range (AFETR). Payloads include a variety of satellites, spacecraft, and rockets equipped with specific instruments for various scientific and technological missions. These include communications satellites like Starlink; space stations such as the ISS; scientific satellites like the Hubble; Earth observation satellites from companies like Planet Labs, Umbra, and HawkEye 360; GPS; miniature CubeSats for education and research; and military/defense satellites.

Loading next visibility...
STARLINK-1405 details
Identifier
45702, 2020-035AX
Orbit
LEO
Last TLE update12 hours ago
Origin
Flag of USSpaceX/Seattle (US)
ManufacturerSpaceX/Seattle
MissionPartially operational Commercial Communications
Bus & MotorSTARLINK, Unknown motor
Mass260 kg wet, ~248 kg dry
Launch date (UTC)
2020-06-04 (5 years ago)
Launch vehicle
FALCON 9
Launch site
Air Force Eastern Test Range (AFETR)
Object type
Payload
Rocket body
Debris
Shape & HBRBox + 1 Pan, 8.86 m
Radar Cross Section13.562 m², Large (>1 m²)

Expand to show TLE details & history

TLE from 12 hours ago
0 STARLINK-1405
1 45702U 20035AX  24360.98073616  .00057459  00000-0  31479-2 0  9999
2 45702  53.0486 204.0613 0007132 145.6693 214.4761 15.13661741253043
Epoch: 2024-12-25T23:32Z
Definitive object data (Epoch: 2024-12-25T23:32:15.604Z)
Latitude-0.00002°
Longitude116.02957°
Altitude529.985 km
Speed7.597 km/s
True Right ascension13h 36m 14s
True Declination0° 00' 00"
Sunlit
Object was in daylight at TLE epoch
Visualization TLE readout
Latitude-5.74275°
Longitude-61.91068°
Altitude522.898 km
Speed7.605 km/s
Apparent Right ascension00h 31m 57s
Apparent Declination-23° 30' 48"
Sunlit
Object is in daylight
Visualization observer readout
Local Sidereal Time10:48:30
Azimuth299.191° NW
Elevation-62.731°
Doppler factor1
Orbital elements
Apogee altitude530.24 km
Perigee altitude520.393 km
Semi-major axis6,903.454 km
Eccentricity0.0007132
Inclination53.0486°
RAAN204.0613°
Arg. of periapsis145.6693°
True anomaly214.42987°
Mean anomaly214.4761°
Eccentric anomaly214.45298°
Mean motion3.78393 °/min
BSTAR0.0031479
Orbital period95.14 mins
Loading maneuver chart data...

STARLINK-1405 Visibility forecast

Observer location: undefined°, undefined

Span
Click to sort rows by Start time (UTC) header in descending order
Start Az.
Max El. time (UTC)
Max El. Az.
Max El.
End time (UTC)
End Az.
5 mins2024-12-26 15:32:09.622Z180.154° SSW2024-12-26 15:35:09.622Z122.755° SE22.433°2024-12-26 15:37:09.622Z84.527° E
6 mins2024-12-26 17:11:09.622Z259.819° W2024-12-26 17:14:09.622Z347.605° N34.284°2024-12-26 17:17:09.622Z38.611° NE
5 mins2024-12-26 22:12:09.622Z344.37° N2024-12-26 22:14:09.622Z33.95° NE26.128°2024-12-26 22:17:09.622Z88.531° E
5 mins2024-12-26 23:51:09.622Z284.288° WNW2024-12-26 23:53:09.622Z222.687° SW34.696°2024-12-26 23:56:09.622Z157.136° SSE
|